Regional Weather Roundup
Issued by NWS

Home | Current Version | Previous Version | Graphics & Text | Print | Product List | Glossary On
Versions: 1 2 3 4 5 6 7 8 9 10 11 12 13 14 15 16 17 18 19 20 21 22 23 24 25 26 27 28 29 30 31 32 33 34 35 36 37 38 39 40 41 42 43 44 45 46 47 48 49
000
ASUS45 KSLC 292210
RWRUT

UTAH REGIONAL WEATHER ROUNDUP
NATIONAL WEATHER SERVICE SALT LAKE CITY UT
400 PM MDT MON JUN 29 2015

UTZ001>011-023>025-292300-

NORTHERN UTAH

CITY           SKY/WX    TMP DP  RH WIND       PRES   REMARKS
BRIGHAM CITY   SUNNY    100  38  12 S5        30.02F HX  94
HILL AFB       SUNNY     99  47  16 VRB5      30.07F HX  95
LOGAN          SUNNY     98  50  19 VRB6      30.03F HX  95
OGDEN          SUNNY    101  43  13 VRB3      30.03F HX  96
PROVO AIRPORT  MOSUNNY   99  45  15 NE5       30.04F HX  94
SALT LAKE CITY MOSUNNY  102  50  17 NE8       30.00F HX  99
VERNAL         MOSUNNY   96  40  14 S5        30.13F HX  92
WENDOVER       SUNNY    102  43  13 SE12      30.00F HX  98
HEBER CITY     MOSUNNY   95  37  13 N6        30.15S HX  90
WEST JORDAN    SUNNY     99  46  16 E8        30.05F HX  95

$$

UTZ012>022-026-027-292300-

SOUTHERN/CENTRAL UTAH

CITY           SKY/WX    TMP DP  RH WIND       PRES   REMARKS
BLANDING       PTSUNNY   92  45  20 SW5       30.23F
BRYCE CANYON   CLOUDY    83  40  21 E8        30.34F
CEDAR CITY     MOSUNNY   93  37  14 S8        30.14F
DELTA          SUNNY    100  33   9 SW7       30.04F HX  94
HANKSVILLE     SUNNY    104  37  10 NE6       30.03F HX  98
MILFORD        MOSUNNY  101  37  11 VRB3G21   30.06F HX  95
MOAB/CYNLANDS  SUNNY    101  40  12 CALM      30.00F HX  96
PRICE          PTSUNNY   93  42  17 NW20G25   30.17S
ST GEORGE      PTCLDY   106  46  13 W9G16     29.92F HX 102
KANAB          MOSUNNY   99  43  14 SW5       30.13F HX  94

$$

REGIONAL REPORTS     COLORADO/ARIZONA

CITY           SKY/WX    TMP DP  RH WIND       PRES   REMARKS
CRAIG, CO      SUNNY     93  34  12 N8        30.22F
GRAND JUNCTION MOSUNNY   98  43  15 SW7       30.05F HX  94
RIFLE          MOSUNNY   96  38  13 NW13G22   30.13F HX  91
MONTROSE       SUNNY     91  44  19 VRB6      30.16F
CORTEZ         SUNNY     95  43  16 N7        30.15F HX  91
PAGE, AZ       SUNNY    104  36   9 N9        30.01F HX  98
GRAND CANYON   PTSUNNY   81  46  29 S17G30    30.28S THUNDER
KINGMAN        MOSUNNY   99  49  18 SW12G18   30.00F HX  96
FLAGSTAFF      PTSUNNY   69  59  70 W8        30.32F

$$

REGIONAL REPORTS    NEVADA/IDAHO/WYOMING

CITY           SKY/WX    TMP DP  RH WIND       PRES   REMARKS
LAS VEGAS, NV  MOSUNNY  108  45  12 VRB3      29.83F HX 103
ELY            PTSUNNY   89  38  16 S10G21    30.21R
ELKO           SUNNY     98  39  13 W5        30.07F HX  93
POCATELLO, ID  SUNNY    100  61  27 NW10      30.03F HX 101
BURLEY         MOSUNNY   96  54  24 CALM      30.00F HX  94
EVANSTON, WY   MOSUNNY   90  39  16 VRB6      30.30F
ROCK SPRINGS   SUNNY     87  41  19 VRB3      30.29F
KEMMERER       SUNNY    N/A N/A N/A N3        30.33F

$$


USA.gov is the U.S. government's official web portal to all federal, state and local government web resources and services.